Istanbul, Turkey

12:11 PM +03 on May 25, 2017 (GMT +0300)
Ataturk

Weather History for LTBA - May, 2012

Change the Weather History Date:

Thursday, May 10, 2012

  Actual Average Record
Temperature  
Mean Temperature 66 °F -  
Max Temperature 71 °F 72 °F 77 °F (2003)
Min Temperature 61 °F 57 °F 46 °F (1999)
Cooling Degree Days 1    
Growing Degree Days 16 (Base 50)    
Moisture  
Dew Point 54 °F    
Average Humidity 68    
Maximum Humidity 77    
Minimum Humidity 53    
Precipitation  
Precipitation 0.00 in - - ()
Sea Level Pressure  
Sea Level Pressure 30.11 in    
Wind  
Wind Speed 10 mph ()    
Max Wind Speed 15 mph    
Max Gust Speed -    
Visibility 6.2 miles    
Events      
Averages and records for this station are not official NWS values.
T = Trace of Precipitation, MM = Missing Value Source: Averaged Metar Reports

Daily Weather History Graph

Daily Weather History Graph

Search for Another Location

Airport or City:

Trip Planner

Search our weather history database for the weather conditions in past years. The results will help you decide how hot, cold, wet, or windy it might be!

Date:

Astronomy

May. 10, 2012 Rise Set
Actual Time 5:51 AM EEST 8:10 PM EEST
Civil Twilight 5:21 AM EEST 8:41 PM EEST
Nautical Twilight 4:43 AM EEST 9:19 PM EEST
Astronomical Twilight 4:01 AM EEST 10:02 PM EEST
Moon No Moon Rise 9:53 AM EEST (5/10)
Length of Visible Light 15h 20m
Length of Day
14h 19m
Waning Gibbous, 76% of the Moon is Illuminated
May 10
Waning Gibbous
May 13
Last Quarter
May 21
New
May 28
First Quarter
Jun 4
Full

Hourly Weather History & Observations

Time (EEST) Temp. Dew Point Humidity Pressure Visibility Wind Dir Wind Speed Gust Speed Precip Events Conditions
12:20 AM 62.6 °F 53.6 °F 72% 30.09 in 6.2 mi NE 13.8 mph - N/A   Scattered Clouds
12:50 AM 62.6 °F 53.6 °F 72% 30.09 in 6.2 mi NE 12.7 mph - N/A   Scattered Clouds
1:20 AM 62.6 °F 53.6 °F 72% 30.09 in 6.2 mi ENE 10.4 mph - N/A   Scattered Clouds
1:50 AM 62.6 °F 53.6 °F 72% 30.09 in 6.2 mi NE 13.8 mph - N/A   Scattered Clouds
2:20 AM 62.6 °F 53.6 °F 72% 30.09 in 6.2 mi NE 10.4 mph - N/A   Scattered Clouds
2:50 AM 62.6 °F 53.6 °F 72% 30.09 in 6.2 mi NE 10.4 mph - N/A   Scattered Clouds
3:00 AM 62 °F 53 °F 66% 30.11 in 6 mi NE 10.4 mph - -   Mostly Cloudy
3:20 AM 62.6 °F 53.6 °F 72% 30.09 in 6.2 mi NE 11.5 mph - N/A   Scattered Clouds
3:50 AM 62.6 °F 53.6 °F 72% 30.09 in 6.2 mi NE 11.5 mph - N/A   Scattered Clouds
4:50 AM 62.6 °F 53.6 °F 72% 30.09 in 6.2 mi NE 10.4 mph - N/A   Scattered Clouds
5:20 AM 62.6 °F 53.6 °F 72% 30.12 in 6.2 mi ENE 10.4 mph - N/A   Scattered Clouds
5:50 AM 62.6 °F 51.8 °F 68% 30.12 in 6.2 mi NE 9.2 mph - N/A   Scattered Clouds
6:20 AM 62.6 °F 51.8 °F 68% 30.12 in 6.2 mi NE 10.4 mph - N/A   Scattered Clouds
7:20 AM 62.6 °F 51.8 °F 68% 30.12 in 6.2 mi NE 12.7 mph - N/A   Mostly Cloudy
7:50 AM 64.4 °F 53.6 °F 68% 30.12 in 6.2 mi NE 11.5 mph - N/A   Mostly Cloudy
8:20 AM 64.4 °F 53.6 °F 68% 30.09 in 6.2 mi NNE 11.5 mph - N/A   Mostly Cloudy
8:50 AM 64.4 °F 53.6 °F 68% 30.12 in 6.2 mi NE 10.4 mph - N/A   Mostly Cloudy
9:00 AM 65 °F 54 °F 59% 30.13 in 6 mi NE 10.4 mph - -   Mostly Cloudy
9:20 AM 66.2 °F 53.6 °F 64% 30.12 in 6.2 mi NE 10.4 mph - N/A   Mostly Cloudy
9:50 AM 64.4 °F 53.6 °F 68% 30.12 in 6.2 mi NE 12.7 mph - N/A   Mostly Cloudy
10:20 AM 64.4 °F 53.6 °F 68% 30.12 in 6.2 mi NE 11.5 mph - N/A   Mostly Cloudy
10:50 AM 62.6 °F 55.4 °F 77% 30.15 in 6.2 mi NNE 13.8 mph - N/A   Mostly Cloudy
11:20 AM 62.6 °F 55.4 °F 77% 30.15 in 6.2 mi NNE 13.8 mph - N/A   Mostly Cloudy
11:50 AM 62.6 °F 55.4 °F 77% 30.15 in 6.2 mi NNE 15.0 mph - N/A   Mostly Cloudy
12:20 PM 64.4 °F 57.2 °F 77% 30.15 in 6.2 mi NNE 11.5 mph - N/A   Mostly Cloudy
12:50 PM 64.4 °F 55.4 °F 73% 30.15 in 6.2 mi NNE 11.5 mph - N/A   Mostly Cloudy
1:20 PM 64.4 °F 57.2 °F 77% 30.15 in 6.2 mi NNE 10.4 mph - N/A   Mostly Cloudy
1:50 PM 66.2 °F 57.2 °F 73% 30.12 in 5.6 mi North 12.7 mph - N/A   Mostly Cloudy
2:20 PM 68.0 °F 55.4 °F 64% 30.12 in 6.2 mi NNE 10.4 mph - N/A   Mostly Cloudy
2:50 PM 68.0 °F 55.4 °F 64% 30.12 in 6.2 mi NE 9.2 mph - N/A   Mostly Cloudy
3:00 PM 68 °F 55 °F 53% 30.14 in 6 mi NE 9.2 mph - -   Partly Cloudy
3:20 PM 68.0 °F 55.4 °F 64% 30.12 in 6.2 mi NNE 9.2 mph - N/A   Mostly Cloudy
3:50 PM 68.0 °F 55.4 °F 64% 30.12 in 6.2 mi North 9.2 mph - N/A   Mostly Cloudy
4:20 PM 68.0 °F 53.6 °F 60% 30.09 in 6.2 mi NE 9.2 mph - N/A   Mostly Cloudy
4:50 PM 68.0 °F 55.4 °F 64% 30.09 in 6.2 mi NNE 10.4 mph - N/A   Mostly Cloudy
5:20 PM 71.6 °F 53.6 °F 53% 30.09 in 6.2 mi ENE 10.4 mph - N/A   Mostly Cloudy
5:50 PM 69.8 °F 53.6 °F 56% 30.09 in 6.2 mi ENE 10.4 mph - N/A   Mostly Cloudy
6:20 PM 68.0 °F 53.6 °F 60% 30.09 in 6.2 mi NE 9.2 mph - N/A   Mostly Cloudy
6:50 PM 68.0 °F 53.6 °F 60% 30.06 in 6.2 mi NE 11.5 mph - N/A   Mostly Cloudy
7:20 PM 66.2 °F 53.6 °F 64% 30.09 in 6.2 mi NE 9.2 mph - N/A   Mostly Cloudy
7:50 PM 66.2 °F 53.6 °F 64% 30.09 in 6.2 mi NE 9.2 mph - N/A   Mostly Cloudy
8:20 PM 66.2 °F 53.6 °F 64% 30.09 in 6.2 mi NNE 8.1 mph - N/A   Mostly Cloudy
8:50 PM 66.2 °F 55.4 °F 68% 30.12 in 6.2 mi Variable 6.9 mph - N/A   Mostly Cloudy
9:00 PM 65 °F 55 °F 62% 30.12 in 6 mi NE 6.9 mph - -   Partly Cloudy
9:20 PM 64.4 °F 55.4 °F 73% 30.12 in 6.2 mi NE 6.9 mph - N/A   Mostly Cloudy
9:50 PM 64.4 °F 57.2 °F 77% 30.12 in 6.2 mi Variable 6.9 mph - N/A   Mostly Cloudy
10:20 PM 64.4 °F 55.4 °F 73% 30.12 in 6.2 mi Variable 6.9 mph - N/A   Mostly Cloudy
10:50 PM 64.4 °F 55.4 °F 73% 30.12 in 6.2 mi Variable 5.8 mph - N/A   Mostly Cloudy
11:20 PM 62.6 °F 55.4 °F 77% 30.12 in 6.2 mi NNE 8.1 mph - N/A   Mostly Cloudy
11:50 PM 62.6 °F 53.6 °F 72% 30.12 in 6.2 mi NNE 11.5 mph - N/A   Mostly Cloudy